クリステンセン彗星

383P/Christensen (2019)

English version
Home page
Updated on August 15, 2020

---------------------------------------------------------------------

・ プロフィール

符号 383P/2019 M1
検出日 2019年6月25日
検出光度 19.9等
検出者 K. Sarneczky (Konkoly Observatory)

・ 軌道要素

Epoch 2019 Nov. 13.0 TT = JDT 2458800.5                                         
T 2019 Oct. 26.20432 TT                                 Williams                
q   1.4192100            (2000.0)            P               Q                  
n   0.14779703     Peri.  133.61620     +0.94059948     +0.32450144             
a   3.5429002      Node   207.89825     -0.33883682     +0.91581710             
e   0.5994214      Incl.   12.32250     +0.02149933     +0.23659639             
P   6.67                                                                        
From 301 observations 2006 Sept. 16-2019 July 8, mean residual 0".6.            

・ 光度変化

        m1 = 17.0 + 5 logΔ + 10.0 log r

---------------------------------------------------------------------

軌道要素はM.P.E.C. 2019-X94に掲載されたものです。
光度グラフはComet for Windowsで作成したものです。

---------------------------------------------------------------------

Copyright(C) Seiichi Yoshida (comet@aerith.net). All rights reserved.